User: anonymous   Login
Location: Chequamegon National Forest
(46.1070°N, 90.8420°W)
Time: 21:51:44
(UTC-05:00)
Language:

ISS - Orbit

View from above orbital plane
View from above orbital plane
View from above satellite
View from above satellite

Ground track
Ground track

The orbit data is extracted from the following two-line orbital elements,

1 25544U 98067A   16150.83116436  .00001785  00000-0  33529-4 0  9992
2 25544  51.6435 149.6005 0001783 131.8538 290.2909 15.54702730  2130
Epoch (UTC): 29 May 2016 19:56:52
Eccentricity: 0.0001783
inclination: 51.6435°
perigee height: 402 km
apogee height: 404 km
right ascension of ascending node: 149.6005°
argument of perigee: 131.8538°
revolutions per day: 15.54702730
mean anomaly at epoch: 290.2909°
orbit number at epoch: 213

The dashed part of the orbit path shows where the satellite is in the earth's shadow,  

DLR